Location: Krakow
(50.0830°N, 19.9170°E)
Time: 13:08:38
(UTC+02:00)

Tiros 1 - Pass Details

Date: 30 January 2023
Orbit: 627 x 662 km, 48.4° (Epoch: 01 April)

Event Time Altitude Azimuth Distance (km) Brightness Sun altitude
Exits shadow 03:29:41 18° 90° (E) 1,569 9.7 -36.4°
Drops below altitude 10° 03:30:57 10° 87° (E) 2,042 10.4 -36.2°
Sets 03:33:19 0° 84° (E) 2,960 11.5 -35.8°
